This is the latest recevied weather packets stored in our database for station/object KQ4PPF. If no packets are shown the sender has not sent any weather packets the latest 1 day(s).
| Time | Temp. | Humidity | Pressure | Rain* | Wind** | Luminosity | Snow |
|---|---|---|---|---|---|---|---|
| 1778012756 | 25° C | 44% | 1011.4 hPa | 0 mm | 0 m/s | 131 W/m² | - |
| 1778012453 | 25° C | 43% | 1011.6 hPa | 0 mm | 0 m/s | 136 W/m² | - |
| 1778012149 | 25° C | 43% | 1011.6 hPa | 0 mm | 0 m/s | 146 W/m² | - |
| 1778011847 | 25.56° C | 43% | 1011.8 hPa | 0 mm | 1.34 m/s, 2° | 108 W/m² | - |
| 1778011545 | 25.56° C | 43% | 1011.9 hPa | 0 mm | 0 m/s | 99 W/m² | - |
| 1778011242 | 25.56° C | 41% | 1011.8 hPa | 0 mm | 0.89 m/s, 331° | 60 W/m² | - |
| 1778010932 | 25.56° C | 44% | 1012.2 hPa | 0 mm | 0 m/s | 82 W/m² | - |
| 1778010630 | 25.56° C | 45% | 1011.7 hPa | 0 mm | 0.45 m/s, 23° | 63 W/m² | - |
| 1778010327 | 25.56° C | 45% | 1011.7 hPa | 0 mm | 0 m/s | 79 W/m² | - |
| 1778010022 | 25.56° C | 45% | 1011.9 hPa | 0 mm | 0 m/s | 109 W/m² | - |
| 1778009720 | 25.56° C | 44% | 1012 hPa | 0 mm | 0 m/s | 131 W/m² | - |
| 1778009417 | 25° C | 46% | 1012.4 hPa | 0 mm | 0 m/s | 153 W/m² | - |
| 1778009115 | 25° C | 44% | 1012.5 hPa | 0 mm | 0 m/s | 170 W/m² | - |
| 1778008812 | 24.44° C | 44% | 1012.5 hPa | 0 mm | 0 m/s | 165 W/m² | - |
| 1778008505 | 25° C | 42% | 1012.2 hPa | 0 mm | 0 m/s | 128 W/m² | - |
| 1778008203 | 25.56° C | 40% | 1012.4 hPa | 0 mm | 0 m/s | 90 W/m² | - |
| 1778007897 | 25° C | 44% | 1012.4 hPa | 0 mm | 0 m/s | 97 W/m² | - |
| 1778007592 | 25° C | 44% | 1012.4 hPa | 0 mm | 0 m/s | 117 W/m² | - |
| 1778007290 | 25° C | 46% | 1012.5 hPa | 0 mm | 0 m/s | 108 W/m² | - |
| 1778006986 | 25° C | 46% | 1012.2 hPa | 0 mm | 0 m/s | 91 W/m² | - |
| 1778006682 | 25.56° C | 44% | 1012.5 hPa | 0 mm | 0.45 m/s, 316° | 104 W/m² | - |
| 1778006379 | 25.56° C | 46% | 1012.7 hPa | 0 mm | 0 m/s | 123 W/m² | - |
| 1778006076 | 25.56° C | 44% | 1012.8 hPa | 0 mm | 1.34 m/s, 359° | 142 W/m² | - |
| 1778005773 | 25.56° C | 44% | 1013 hPa | 0 mm | 0 m/s | 154 W/m² | - |
| 1778005470 | 25.56° C | 42% | 1012.9 hPa | 0 mm | 0 m/s | 146 W/m² | - |
* Rain latest hour (hover to see other rain measurements)
** Current wind speed in m/s (hover to see current wind gust speed)